GRL233 LOWS-BIKF

Flight info

Callsign GRL233
Flight time N/A
Altitude 38000
Route INROM DCT SIMBA Y700 NENUM DCT EPTEU L604 RUDNO M736 AKOSI DCT KUGAL DCT KARLI DCT GUNPA/M077F380 DCT ING DCT NASBU NASBU5N
Aircraft B738/M-SDE2E3FGHIRWXY/LB1

Departure

Time 2026-05-07 16:59
Airport Salzburg Airport (LOWS)

Arrival

Time N/A
Airport Keflavik International Airport (BIKF)
Time Latitude Longitude Altitude Speed Heading
2026-05-07 16:35 47.79089 12.99962 1423 ft 0 kts 282°
2026-05-07 16:51 47.79087 12.99981 1423 ft 2 kts 282°
2026-05-07 16:51 47.79084 13.00002 1422 ft 2 kts 282°
2026-05-07 16:51 47.79080 13.00024 1422 ft 2 kts 282°
2026-05-07 16:51 47.79077 13.00046 1422 ft 2 kts 282°
2026-05-07 16:52 47.79073 13.00068 1422 ft 2 kts 300°
2026-05-07 16:52 47.79063 13.00085 1422 ft 2 kts 322°
2026-05-07 16:52 47.79056 13.00092 1422 ft 1 kts 336°
2026-05-07 16:52 47.79051 13.00095 1422 ft 0 kts 336°
2026-05-07 16:54 47.79057 13.00091 1422 ft 2 kts 336°
2026-05-07 16:54 47.79089 13.00071 1422 ft 7 kts 336°
2026-05-07 16:54 47.79142 13.00036 1422 ft 9 kts 336°
2026-05-07 16:55 47.79213 12.99989 1422 ft 12 kts 336°
2026-05-07 16:55 47.79305 12.99930 1422 ft 16 kts 337°
2026-05-07 16:55 47.79407 12.99870 1420 ft 16 kts 339°
2026-05-07 16:55 47.79516 12.99812 1421 ft 15 kts 341°
2026-05-07 16:56 47.79604 12.99770 1421 ft 7 kts 358°
2026-05-07 16:56 47.79662 12.99815 1421 ft 11 kts 31°
2026-05-07 16:56 47.79774 12.99848 1420 ft 10 kts 338°
2026-05-07 16:57 47.79868 12.99787 1420 ft 17 kts 338°
2026-05-07 16:57 47.79982 12.99723 1419 ft 17 kts 336°
2026-05-07 16:57 47.80100 12.99643 1419 ft 20 kts 336°
2026-05-07 16:57 47.80231 12.99597 1418 ft 19 kts 25°
2026-05-07 16:58 47.80281 12.99762 1419 ft 17 kts 99°
2026-05-07 16:58 47.80191 12.99853 1419 ft 18 kts 156°
2026-05-07 16:58 47.79871 13.00055 1420 ft 83 kts 159°
2026-05-07 16:58 47.79138 13.00519 1420 ft 141 kts 156°
2026-05-07 16:59 47.78119 13.01158 1665 ft 165 kts 157°
2026-05-07 16:59 47.77051 13.01812 2235 ft 172 kts 155°
2026-05-07 16:59 47.75972 13.02627 2796 ft 179 kts 142°
2026-05-07 16:59 47.75122 13.03965 3350 ft 179 kts 118°